CW6102 Weather Reports


time (UTC)temp
C
wind
direction
speed
KPH
gust
KPH
rain 1hr
cm
rain 24hr
cm
rain mn
cm
humidity
%
barometer
mb
20260507065212 7 255 0.0 0.0 0.00 0.00 0.00 84 1024.7
20260507065204 8 37 1.6 4.8 0.00 1.35 1.12 94 1009.7
20260507064705 8 39 0.0 4.8 0.00 1.35 1.12 94 1009.6
20260507064212 7 255 0.0 0.0 0.00 0.00 0.00 84 1024.7
20260507064205 8 59 0.0 4.8 0.00 1.35 1.12 94 1009.5
20260507063705 8 26 1.6 8.0 0.00 1.35 1.12 94 1009.5
20260507063212 7 255 0.0 0.0 0.00 0.00 0.00 84 1024.7
20260507063205 8 37 1.6 4.8 0.00 1.35 1.12 94 1009.5
20260507062704 8 9 1.6 8.0 0.00 1.35 1.12 94 1009.4
20260507062212 7 255 0.0 0.0 0.00 0.00 0.00 84 1024.7
20260507062204 8 25 3.2 8.0 0.00 1.35 1.12 94 1009.4
20260507061212 7 255 0.0 0.0 0.00 0.00 0.00 84 1024.7
20260507061205 8 49 1.6 4.8 0.00 1.35 1.12 93 1009.1
20260507060705 8 49 3.2 8.0 0.00 1.35 1.12 93 1009.0
20260507055705 8 51 1.6 4.8 0.00 1.35 1.12 94 1008.9
20260507055212 7 255 0.0 0.0 0.00 0.00 0.00 84 1024.7
20260507055205 8 50 3.2 4.8 0.00 1.35 1.12 94 1008.9
20260507054212 7 255 0.0 0.0 0.00 0.00 0.00 84 1024.7
20260507054205 8 343 1.6 4.8 0.00 1.35 1.12 93 1008.9
20260507053705 8 22 3.2 11.3 0.00 1.35 1.12 93 1008.8
20260507053212 7 255 0.0 0.0 0.00 0.00 0.00 84 1024.7
20260507053205 8 100 1.6 8.0 0.00 1.35 1.12 93 1008.8
20260507052705 8 83 1.6 11.3 0.00 1.35 1.12 93 1008.6
20260507051705 8 23 3.2 8.0 0.03 1.37 1.12 94 1008.5
20260507051212 7 255 0.0 0.0 0.00 0.00 0.00 84 1024.7
20260507051204 8 32 1.6 4.8 0.03 1.37 1.12 94 1008.4
20260507050705 8 14 1.6 8.0 0.05 1.37 1.12 94 1008.4
20260507050212 7 255 0.0 0.0 0.00 0.00 0.00 84 1024.7
20260507050205 8 96 3.2 4.8 0.05 1.37 1.12 94 1008.3
20260507045705 9 96 1.6 8.0 0.05 1.37 1.12 93 1008.4
20260507045212 7 255 0.0 0.0 0.00 0.00 0.00 84 1024.7
20260507045205 9 96 1.6 3.2 0.05 1.37 1.12 93 1008.3
20260507044212 7 255 0.0 0.0 0.00 0.00 0.00 84 1024.7
20260507044205 9 96 0.0 1.6 0.05 1.37 1.12 93 1008.2
20260507043212 7 255 0.0 0.0 0.00 0.00 0.00 84 1024.7
20260507043205 9 96 0.0 1.6 0.05 1.37 1.12 93 1008.1
20260507042705 9 96 1.6 4.8 0.08 1.37 1.12 93 1008.0
20260507042212 7 255 0.0 0.0 0.00 0.00 0.00 84 1024.7
20260507042204 9 96 1.6 4.8 0.05 1.35 1.09 93 1008.1
20260507041704 9 96 1.6 3.2 0.08 1.35 1.09 94 1008.1
20260507041212 7 255 0.0 0.0 0.00 0.00 0.00 84 1024.7
20260507041204 9 96 0.0 0.0 0.08 1.35 1.09 94 1008.1
20260507040705 9 96 0.0 0.0 0.08 1.32 1.09 93 1008.1
20260507040212 7 255 0.0 0.0 0.00 0.00 0.00 84 1024.7
20260507040205 9 96 0.0 0.0 0.10 1.32 1.09 93 1008.0
20260507035705 9 96 0.0 0.0 0.15 1.30 1.07 93 1008.0
20260507035212 7 255 0.0 0.0 0.00 0.00 0.00 84 1024.7
20260507035204 9 96 0.0 0.0 0.20 1.30 1.07 93 1008.0
20260507034705 9 96 0.0 0.0 0.23 1.30 1.07 93 1007.9
20260507034212 7 255 0.0 0.0 0.00 0.00 0.00 84 1024.7
20260507034205 9 96 0.0 0.0 0.23 1.30 1.07 94 1007.9
20260507033211 7 255 0.0 0.0 0.00 0.00 0.00 84 1024.7
20260507033205 9 96 0.0 0.0 0.23 1.30 1.07 94 1007.8
20260507032211 7 255 0.0 0.0 0.00 0.00 0.00 84 1024.7
20260507032205 9 96 0.0 0.0 0.23 1.27 1.04 94 1007.8
20260507031705 9 96 0.0 0.0 0.23 1.27 1.02 94 1007.7
20260507031211 7 255 0.0 0.0 0.00 0.00 0.00 84 1024.7
20260507031205 9 96 0.0 0.0 0.23 1.27 1.02 93 1007.8
20260507030705 9 96 0.0 1.6 0.23 1.24 0.99 93 1007.7
20260507030211 7 255 0.0 0.0 0.00 0.00 0.00 84 1024.7
20260507030205 9 96 0.0 3.2 0.25 1.22 0.99 93 1007.6
20260507025704 9 96 0.0 1.6 0.23 1.17 0.91 93 1007.5
20260507024704 9 96 0.0 1.6 0.20 1.09 0.84 93 1007.3
20260507024211 7 255 0.0 0.0 0.00 0.00 0.00 84 1024.7
20260507024205 9 96 1.6 4.8 0.20 1.07 0.81 93 1007.4
20260507023704 9 103 0.0 3.2 0.23 1.07 0.81 93 1007.4
20260507023211 7 255 0.0 0.0 0.00 0.00 0.00 84 1024.7
20260507023205 9 103 0.0 4.8 0.23 1.07 0.81 93 1007.4
20260507022704 9 117 0.0 3.2 0.23 1.07 0.81 93 1007.4
20260507022211 7 255 0.0 0.0 0.00 0.00 0.00 84 1024.7
20260507022205 9 117 0.0 3.2 0.20 1.04 0.79 93 1007.3
20260507021211 7 255 0.0 0.0 0.00 0.00 0.00 84 1024.7
20260507021205 9 117 0.0 3.2 0.20 1.02 0.79 93 1007.2
20260507020705 9 117 0.0 0.0 0.20 0.99 0.76 93 1007.2
20260507020211 7 255 0.0 0.0 0.00 0.00 0.00 84 1024.7
20260507020204 9 117 0.0 1.6 0.20 0.97 0.71 93 1007.2
20260507015704 9 117 0.0 3.2 0.20 0.91 0.69 93 1007.3
20260507015211 7 255 0.0 0.0 0.00 0.00 0.00 84 1024.7
20260507015204 9 117 1.6 3.2 0.20 0.89 0.66 93 1007.3
20260507014704 9 117 0.0 3.2 0.20 0.89 0.64 93 1007.2
20260507014211 7 255 0.0 0.0 0.00 0.00 0.00 84 1024.7
20260507014204 9 113 1.6 8.0 0.20 0.86 0.61 93 1007.1
20260507013704 9 40 0.0 4.8 0.18 0.84 0.61 93 1007.2
20260507012705 9 69 1.6 4.8 0.23 0.84 0.61 93 1007.1
20260507011704 9 82 0.0 3.2 0.36 0.81 0.58 93 1007.1
20260507010705 9 18 4.8 12.9 0.51 0.79 0.56 93 1007.1
20260507010211 7 255 0.0 0.0 0.00 0.00 0.00 84 1024.7
20260507010205 9 7 3.2 8.0 0.51 0.76 0.51 93 1007.3
20260507005704 9 28 1.6 8.0 0.48 0.71 0.48 93 1007.3
20260507005211 7 255 0.0 0.0 0.00 0.00 0.00 84 1024.7
20260507005205 10 330 3.2 11.3 0.46 0.71 0.46 93 1007.2
20260507004211 7 255 0.0 0.0 0.00 0.00 0.00 84 1024.7
20260507004204 10 316 8.0 19.3 0.43 0.66 0.43 93 1007.4
20260507003704 10 287 11.3 19.3 0.43 0.66 0.43 93 1007.4
20260507003211 7 255 0.0 0.0 0.00 0.00 0.00 84 1024.7
20260507003205 10 263 8.0 12.9 0.41 0.64 0.41 93 1007.3
20260507002704 10 284 6.4 14.5 0.36 0.61 0.36 93 1007.2
20260507002211 7 255 0.0 0.0 0.00 0.00 0.00 84 1024.7
20260507002204 10 307 11.3 22.5 0.30 0.53 0.30 93 1007.1
20260507001704 10 308 9.7 19.3 0.23 0.46 0.23 93 1007.1
20260507001211 7 255 0.0 0.0 0.00 0.00 0.00 84 1024.7
20260507001204 10 309 9.7 12.9 0.10 0.33 0.10 93 1007.1
20260507000704 10 328 8.0 12.9 0.05 0.28 0.05 93 1007.1
20260507000212 7 255 0.0 0.0 0.00 0.00 0.00 84 1024.7
20260507000205 10 320 9.7 19.3 0.03 0.25 0.03 93 1007.0
20260506235704 10 303 8.0 11.3 0.00 0.23 0.00 93 1006.7
20260506235211 7 255 0.0 0.0 0.00 0.00 0.00 84 1024.7
20260506235204 10 331 4.8 9.7 0.00 0.23 0.00 93 1006.7
20260506234704 10 290 3.2 8.0 0.00 0.25 0.00 93 1006.6
20260506234211 7 255 0.0 0.0 0.00 0.00 0.00 84 1024.7
20260506234204 10 39 3.2 8.0 0.00 0.28 0.00 93 1006.6
20260506233704 11 39 3.2 8.0 0.00 0.33 0.00 93 1006.6
20260506233210 7 255 0.0 0.0 0.00 0.00 0.00 84 1024.7
20260506233205 11 39 0.0 4.8 0.00 0.36 0.00 93 1006.4
20260506232704 11 76 3.2 8.0 0.00 0.41 0.00 93 1006.4
20260506231704 11 77 1.6 4.8 0.00 0.48 0.00 93 1006.2
20260506230704 11 48 1.6 8.0 0.00 0.58 0.00 93 1006.2
20260506230210 7 255 0.0 0.0 0.00 0.00 0.00 84 1024.7
20260506230204 11 5 3.2 9.7 0.00 0.61 0.00 92 1006.1
20260506225704 11 7 4.8 12.9 0.00 0.64 0.00 93 1006.2
20260506225211 7 255 0.0 0.0 0.00 0.00 0.00 84 1024.7
20260506225204 11 23 3.2 11.3 0.00 0.69 0.00 93 1006.2
20260506224210 7 255 0.0 0.0 0.00 0.00 0.00 84 1024.7
20260506224204 11 43 4.8 14.5 0.00 0.74 0.00 92 1006.5
20260506223704 11 27 4.8 11.3 0.00 0.79 0.00 92 1006.4
20260506223210 7 255 0.0 0.0 0.00 0.00 0.00 84 1024.7
20260506223204 11 352 4.8 9.7 0.00 0.94 0.00 92 1006.4
20260506222704 11 0 3.2 9.7 0.00 1.09 0.00 92 1006.4
20260506222210 7 255 0.0 0.0 0.00 0.00 0.00 84 1024.7
20260506222204 11 8 3.2 9.7 0.00 1.27 0.00 92 1006.4
20260506221704 11 350 8.0 12.9 0.00 1.32 0.00 92 1006.3
20260506221210 7 255 0.0 0.0 0.00 0.00 0.00 84 1024.7
20260506221204 11 4 3.2 11.3 0.00 1.45 0.00 92 1006.3
20260506220704 12 23 3.2 9.7 0.00 1.45 0.00 92 1006.2
20260506220210 7 255 0.0 0.0 0.00 0.00 0.00 84 1024.7
20260506220205 12 51 4.8 9.7 0.00 1.45 0.00 92 1006.1
20260506215704 12 9 3.2 9.7 0.00 1.47 1.45 92 1006.2
20260506215210 7 255 0.0 0.0 0.00 0.00 0.00 84 1024.7
20260506215204 12 63 0.0 4.8 0.00 1.47 1.45 92 1006.0
20260506214704 12 63 1.6 4.8 0.00 1.47 1.45 92 1006.1
20260506214210 7 255 0.0 0.0 0.00 0.00 0.00 84 1024.7
20260506214204 12 49 1.6 8.0 0.03 1.47 1.45 92 1006.0
20260506213704 12 82 0.0 1.6 0.03 1.47 1.45 92 1006.0
20260506213210 7 255 0.0 0.0 0.00 0.00 0.00 84 1024.7
20260506213204 12 82 1.6 4.8 0.03 1.47 1.45 92 1006.1
20260506212210 7 255 0.0 0.0 0.00 0.00 0.00 84 1024.7
20260506212205 12 82 3.2 11.3 0.05 1.47 1.45 92 1006.1
20260506211704 12 81 1.6 4.8 0.05 1.47 1.45 92 1006.1
20260506211210 7 255 0.0 0.0 0.00 0.00 0.00 84 1024.7
20260506211205 12 52 3.2 8.0 0.05 1.47 1.45 92 1006.1
20260506210704 12 9 3.2 4.8 0.05 1.47 1.45 92 1006.0
20260506210210 7 255 0.0 0.0 0.00 0.00 0.00 84 1024.7
20260506210204 12 43 3.2 8.0 0.05 1.47 1.45 92 1006.1
20260506205704 12 348 3.2 8.0 0.05 1.47 1.45 92 1005.9
20260506205210 7 255 0.0 0.0 0.00 0.00 0.00 84 1024.7
20260506205204 12 55 3.2 9.7 0.05 1.47 1.45 92 1005.8
20260506204704 12 316 3.2 9.7 0.05 1.47 1.45 92 1005.7
20260506204210 7 255 0.0 0.0 0.00 0.00 0.00 84 1024.7
20260506204204 12 39 3.2 9.7 0.03 1.45 1.45 91 1005.8
20260506203704 12 25 4.8 11.3 0.03 1.45 1.45 91 1005.7
20260506202704 12 348 4.8 11.3 0.03 1.45 1.45 91 1005.8
20260506202210 7 255 0.0 0.0 0.00 0.00 0.00 84 1024.7
20260506202203 12 2 4.8 11.3 0.00 1.45 1.42 91 1005.8
20260506201704 13 8 4.8 11.3 0.00 1.45 1.42 91 1005.8
20260506201210 7 255 0.0 0.0 0.00 0.00 0.00 84 1024.7
20260506201204 13 8 4.8 9.7 0.00 1.45 1.42 91 1005.9
20260506200704 13 293 1.6 4.8 0.00 1.45 1.42 91 1005.8
20260506200210 7 255 0.0 0.0 0.00 0.00 0.00 84 1024.7
20260506200204 13 5 1.6 4.8 0.00 1.45 1.42 91 1005.7
20260506195704 13 311 3.2 8.0 0.00 1.45 1.42 91 1005.6
20260506195210 7 255 0.0 0.0 0.00 0.00 0.00 84 1024.7
20260506195204 13 354 1.6 8.0 0.00 1.45 1.42 91 1005.7
20260506194704 13 62 0.0 4.8 0.00 1.45 1.42 91 1005.7
20260506194210 7 255 0.0 0.0 0.00 0.00 0.00 84 1024.7
20260506194205 13 67 1.6 4.8 0.00 1.45 1.42 91 1005.6
20260506193704 13 105 0.0 0.0 0.00 1.45 1.42 91 1005.5
20260506193210 7 255 0.0 0.0 0.00 0.00 0.00 84 1024.7
20260506193204 13 105 0.0 0.0 0.00 1.45 1.42 91 1005.6
20260506192704 13 148 1.6 3.2 0.00 1.45 1.42 91 1005.5
20260506191705 13 83 0.0 1.6 0.00 1.45 1.42 90 1005.5
20260506191210 7 255 0.0 0.0 0.00 0.00 0.00 84 1024.7
20260506191204 13 83 0.0 0.0 0.00 1.45 1.42 91 1005.4
20260506190705 13 83 0.0 3.2 0.00 1.45 1.42 90 1005.3
20260506190210 7 255 0.0 0.0 0.00 0.00 0.00 84 1024.7
20260506190205 13 76 3.2 4.8 0.00 1.45 1.42 90 1005.4
20260506185704 13 101 0.0 1.6 0.00 1.45 1.42 90 1005.3
20260506185210 7 255 0.0 0.0 0.00 0.00 0.00 84 1024.7
20260506185204 14 101 0.0 3.2 0.00 1.45 1.42 90 1005.2
20260506184704 14 101 0.0 0.0 0.00 1.45 1.42 90 1005.2
20260506184210 7 255 0.0 0.0 0.00 0.00 0.00 84 1024.7
20260506184204 14 101 0.0 0.0 0.00 1.45 1.42 90 1005.0
20260506183704 14 95 1.6 3.2 0.00 1.45 1.42 89 1005.0
20260506183210 7 255 0.0 0.0 0.00 0.00 0.00 84 1024.7
20260506183204 14 138 0.0 1.6 0.00 1.45 1.42 89 1004.9
20260506181704 14 232 0.0 4.8 0.00 1.45 1.42 89 1004.8
20260506181210 7 255 0.0 0.0 0.00 0.00 0.00 84 1024.7
20260506181204 15 174 0.0 0.0 0.00 1.45 1.42 89 1004.8
20260506180704 15 173 0.0 3.2 0.00 1.45 1.42 89 1004.8
20260506180210 7 255 0.0 0.0 0.00 0.00 0.00 84 1024.7
20260506180204 15 169 0.0 3.2 0.00 1.45 1.42 89 1004.8
20260506175704 15 121 3.2 8.0 0.00 1.45 1.42 88 1004.7
20260506174704 15 341 4.8 12.9 0.03 1.45 1.42 88 1004.6
20260506173704 15 256 3.2 4.8 0.05 1.45 1.42 88 1004.6
20260506173210 7 255 0.0 0.0 0.00 0.00 0.00 84 1024.7
20260506173203 15 296 3.2 4.8 0.05 1.45 1.42 89 1004.5
20260506172704 15 288 0.0 0.0 0.08 1.45 1.42 89 1004.5
20260506172209 7 255 0.0 0.0 0.00 0.00 0.00 84 1024.7
20260506172203 15 288 0.0 0.0 0.10 1.45 1.42 89 1004.5
20260506171703 15 288 0.0 0.0 0.15 1.45 1.42 88 1004.5
20260506171209 7 255 0.0 0.0 0.00 0.00 0.00 84 1024.7
20260506171204 15 288 0.0 4.8 0.15 1.45 1.42 88 1004.5
20260506170704 15 282 4.8 9.7 0.15 1.45 1.42 88 1004.6
20260506170210 7 255 0.0 0.0 0.00 0.00 0.00 84 1024.7
20260506170204 16 277 3.2 8.0 0.15 1.45 1.42 87 1004.6
20260506165703 16 171 1.6 3.2 0.15 1.45 1.42 86 1004.5
20260506165214 7 255 0.0 0.0 0.00 0.00 0.00 84 1024.7
20260506165206 16 144 1.6 3.2 0.15 1.45 1.42 86 1004.3
20260506164706 16 198 1.6 3.2 0.15 1.42 1.40 85 1004.3
20260506163706 16 177 0.0 1.6 0.10 1.37 1.37 83 1004.2
20260506163214 7 255 0.0 0.0 0.00 0.00 0.00 84 1024.7
20260506163205 17 28 1.6 4.8 0.10 1.37 1.37 82 1004.1
20260506162706 17 18 0.0 3.2 0.08 1.37 1.35 82 1004.1
20260506162214 7 255 0.0 0.0 0.00 0.00 0.00 84 1024.7
20260506162206 17 100 0.0 1.6 0.05 1.35 1.32 81 1004.1
20260506161706 17 100 0.0 1.6 0.03 1.30 1.27 80 1004.2
20260506160706 17 100 3.2 8.0 0.03 1.27 1.27 78 1004.2
20260506160214 7 255 0.0 0.0 0.00 0.00 0.00 84 1024.7
20260506160206 18 92 1.6 4.8 0.03 1.27 1.27 78 1004.3
20260506155706 18 127 0.0 3.2 0.03 1.27 1.27 77 1004.3
20260506155214 7 255 0.0 0.0 0.00 0.00 0.00 84 1024.7
20260506155206 18 149 1.6 8.0 0.03 1.27 1.27 78 1004.3
20260506154706 18 128 1.6 8.0 0.03 1.27 1.27 77 1004.3
20260506154214 7 255 0.0 0.0 0.00 0.00 0.00 84 1024.7
20260506154205 18 73 0.0 4.8 0.03 1.27 1.27 75 1004.2
20260506153705 18 113 1.6 3.2 0.03 1.27 1.27 73 1004.3
20260506153214 7 255 0.0 0.0 0.00 0.00 0.00 84 1024.7
20260506153205 18 113 1.6 4.8 0.03 1.27 1.27 74 1004.3
20260506152706 18 113 1.6 3.2 0.03 1.27 1.27 74 1004.3
20260506152214 7 255 0.0 0.0 0.00 0.00 0.00 84 1024.7
20260506152206 18 99 1.6 4.8 0.03 1.27 1.27 74 1004.3
20260506151214 7 255 0.0 0.0 0.00 0.00 0.00 84 1024.7
20260506151206 18 13 4.8 8.0 0.03 1.27 1.27 69 1004.4
20260506150706 18 349 1.6 8.0 0.00 1.27 1.24 68 1004.4
20260506150214 7 255 0.0 0.0 0.00 0.00 0.00 84 1024.7
20260506150206 18 298 3.2 4.8 0.00 1.27 1.24 67 1004.4
20260506145705 19 331 3.2 9.7 0.00 1.27 1.24 65 1004.4
20260506145214 7 255 0.0 0.0 0.00 0.00 0.00 84 1024.7
20260506145206 19 339 3.2 9.7 0.00 1.27 1.24 65 1004.4
20260506144705 20 283 4.8 9.7 0.00 1.27 1.24 64 1004.3
20260506144214 7 255 0.0 0.0 0.00 0.00 0.00 84 1024.7
20260506144205 20 352 1.6 9.7 0.00 1.27 1.24 59 1004.3
20260506143705 20 334 4.8 9.7 0.00 1.27 1.24 57 1004.3
20260506143214 7 255 0.0 0.0 0.00 0.00 0.00 84 1024.7
20260506143205 20 269 3.2 12.9 0.00 1.27 1.24 57 1004.3
20260506142706 20 246 3.2 12.9 0.00 1.27 1.24 57 1004.4
20260506140705 20 239 3.2 12.9 0.00 1.27 1.24 54 1004.3
20260506140214 7 255 0.0 0.0 0.00 0.00 0.00 84 1024.7
20260506140205 20 264 4.8 11.3 0.00 1.27 1.24 55 1004.4
20260506135706 20 283 8.0 19.3 0.00 1.27 1.24 54 1004.5
20260506135214 7 255 0.0 0.0 0.00 0.00 0.00 84 1024.7
20260506135205 20 246 8.0 19.3 0.00 1.27 1.24 53 1004.5
20260506134705 20 269 11.3 20.9 0.00 1.27 1.24 54 1004.5
20260506134214 7 255 0.0 0.0 0.00 0.00 0.00 84 1024.7
20260506134205 20 250 4.8 12.9 0.00 1.27 1.24 55 1004.5
20260506133214 7 255 0.0 0.0 0.00 0.00 0.00 84 1024.7
20260506133206 20 280 8.0 19.3 0.00 1.27 1.24 58 1004.6
20260506132705 20 296 9.7 16.1 0.00 1.27 1.24 58 1004.6
20260506131214 7 255 0.0 0.0 0.00 0.00 0.00 84 1024.7
20260506131205 20 266 9.7 19.3 0.00 1.27 1.24 58 1004.8
20260506130706 20 316 6.4 12.9 0.00 1.27 1.24 56 1004.9
20260506130214 7 255 0.0 0.0 0.00 0.00 0.00 84 1024.7
20260506130205 20 312 11.3 19.3 0.00 1.27 1.24 59 1004.8
20260506125706 20 303 8.0 19.3 0.00 1.27 1.24 60 1004.9
20260506125214 7 255 0.0 0.0 0.00 0.00 0.00 84 1024.7
20260506125205 20 324 9.7 20.9 0.00 1.27 1.24 59 1004.8
20260506124706 20 321 6.4 19.3 0.00 1.27 1.24 58 1004.9
20260506123214 7 255 0.0 0.0 0.00 0.00 0.00 84 1024.7
20260506123205 20 296 9.7 12.9 0.00 1.27 1.24 61 1005.0
20260506122705 19 267 6.4 16.1 0.00 1.27 1.24 63 1005.0
20260506122214 7 255 0.0 0.0 0.00 0.00 0.00 84 1024.7
20260506122205 19 260 9.7 19.3 0.00 1.27 1.24 62 1005.0
20260506121705 18 254 9.7 20.9 0.00 1.27 1.24 62 1005.0
20260506121214 7 255 0.0 0.0 0.00 0.00 0.00 84 1024.7
20260506121205 18 304 9.7 16.1 0.00 1.27 1.24 64 1005.0
20260506120705 18 293 9.7 20.9 0.00 1.27 1.24 64 1005.0
20260506120214 7 255 0.0 0.0 0.00 0.00 0.00 84 1024.7
20260506120205 18 221 6.4 19.3 0.00 1.27 1.24 64 1005.0
20260506115705 19 265 11.3 20.9 0.00 1.27 1.24 63 1004.9
20260506115214 7 255 0.0 0.0 0.00 0.00 0.00 84 1024.7
20260506115205 19 277 11.3 19.3 0.00 1.27 1.24 63 1004.9
20260506114706 18 182 4.8 12.9 0.00 1.27 1.24 64 1004.9
20260506114214 7 255 0.0 0.0 0.00 0.00 0.00 84 1024.7
20260506114205 18 272 8.0 11.3 0.00 1.27 1.24 64 1004.9
20260506113706 18 292 9.7 19.3 0.00 1.27 1.24 63 1004.9
20260506113214 7 255 0.0 0.0 0.00 0.00 0.00 84 1024.7
20260506113205 18 285 9.7 19.3 0.00 1.27 1.24 62 1005.1
20260506112705 19 281 8.0 19.3 0.00 1.27 1.24 60 1005.1
20260506112214 7 255 0.0 0.0 0.00 0.00 0.00 84 1024.7
20260506112205 19 208 9.7 27.4 0.00 1.27 1.24 58 1004.9
20260506111705 19 264 11.3 20.9 0.00 1.27 1.24 59 1004.9
20260506111214 7 255 0.0 0.0 0.00 0.00 0.00 84 1024.7
20260506111205 19 238 11.3 22.5 0.00 1.27 1.24 59 1005.0
20260506110214 7 255 0.0 0.0 0.00 0.00 0.00 84 1024.7
20260506110205 18 202 3.2 19.3 0.00 1.27 1.24 60 1005.0
20260506105214 7 255 0.0 0.0 0.00 0.00 0.00 84 1024.7
20260506105205 19 302 9.7 20.9 0.00 1.27 1.24 61 1005.1
20260506104705 19 241 8.0 19.3 0.00 1.27 1.24 61 1005.1
20260506104214 7 255 0.0 0.0 0.00 0.00 0.00 84 1024.7
20260506104205 19 246 8.0 25.7 0.00 1.27 1.24 60 1005.0
20260506103705 19 141 3.2 22.5 0.00 1.27 1.24 61 1004.9
20260506103214 7 255 0.0 0.0 0.00 0.00 0.00 84 1024.7
20260506103205 19 151 6.4 19.3 0.00 1.27 1.24 62 1005.0
20260506102705 18 302 4.8 20.9 0.00 1.27 1.24 66 1005.0
20260506102214 7 255 0.0 0.0 0.00 0.00 0.00 84 1024.7
20260506102205 18 236 6.4 12.9 0.00 1.27 1.24 66 1005.0
20260506101705 18 159 3.2 25.7 0.00 1.27 1.24 66 1005.1
20260506101214 7 255 0.0 0.0 0.00 0.00 0.00 84 1024.7
20260506101205 18 214 9.7 22.5 0.00 1.27 1.24 66 1005.0
20260506100706 18 189 1.6 19.3 0.00 1.27 1.24 69 1005.0
20260506100214 7 255 0.0 0.0 0.00 0.00 0.00 84 1024.7
20260506100205 18 220 4.8 19.3 0.00 1.27 1.24 69 1005.0
20260506095706 17 213 9.7 25.7 0.00 1.27 1.24 68 1005.0
20260506095214 7 255 0.0 0.0 0.00 0.00 0.00 84 1024.7
20260506095205 17 235 9.7 27.4 0.00 1.27 1.24 69 1005.1
20260506094705 17 177 3.2 12.9 0.00 1.27 1.24 70 1005.0
20260506093705 17 248 8.0 19.3 0.00 1.27 1.24 73 1004.9
20260506093214 7 255 0.0 0.0 0.00 0.00 0.00 84 1024.7
20260506093205 17 180 1.6 11.3 0.00 1.27 1.24 73 1004.9
20260506092705 17 198 8.0 19.3 0.00 1.27 1.24 73 1004.8
20260506092214 7 255 0.0 0.0 0.00 0.00 0.00 84 1024.7
20260506092205 17 243 8.0 19.3 0.00 1.27 1.24 74 1004.8
20260506091705 17 212 8.0 16.1 0.00 1.27 1.24 76 1004.7
20260506091214 7 255 0.0 0.0 0.00 0.00 0.00 84 1024.7
20260506091206 16 190 6.4 20.9 0.00 1.27 1.24 78 1004.7
20260506090705 16 188 3.2 12.9 0.00 1.27 1.24 79 1004.7
20260506090214 7 255 0.0 0.0 0.00 0.00 0.00 84 1024.7
20260506090205 16 173 4.8 14.5 0.00 1.27 1.24 79 1004.6
20260506085214 7 255 0.0 0.0 0.00 0.00 0.00 84 1024.7
20260506085205 16 174 9.7 19.3 0.00 1.27 1.24 78 1004.6
20260506084705 16 185 11.3 20.9 0.00 1.27 1.24 78 1004.5
20260506084214 7 255 0.0 0.0 0.00 0.00 0.00 84 1024.7
20260506084205 16 175 6.4 19.3 0.00 1.27 1.24 78 1004.4
20260506083705 16 206 4.8 11.3 0.00 1.27 1.24 79 1004.3
20260506083214 7 255 0.0 0.0 0.00 0.00 0.00 84 1024.7
20260506083204 16 222 3.2 9.7 0.00 1.27 1.24 79 1004.2
20260506082705 16 180 3.2 11.3 0.00 1.27 1.24 79 1004.2
20260506082214 7 255 0.0 0.0 0.00 0.00 0.00 84 1024.7
20260506082205 16 213 3.2 9.7 0.00 1.27 1.24 80 1004.2
20260506081705 16 169 8.0 12.9 0.00 1.27 1.24 79 1004.1
20260506081214 7 255 0.0 0.0 0.00 0.00 0.00 84 1024.7
20260506081205 16 196 3.2 9.7 0.00 1.27 1.24 79 1004.1
20260506080705 16 215 9.7 14.5 0.00 1.27 1.24 78 1004.1
20260506080214 7 255 0.0 0.0 0.00 0.00 0.00 84 1024.7
20260506080205 16 193 4.8 14.5 0.00 1.27 1.24 78 1003.9
20260506073214 7 255 0.0 0.0 0.00 0.00 0.00 84 1024.7
20260506073204 16 181 9.7 22.5 0.00 1.27 1.24 80 1004.0
20260506072705 16 168 6.4 14.5 0.00 1.27 1.24 80 1004.0
20260506072214 7 255 0.0 0.0 0.00 0.00 0.00 84 1024.7
20260506072205 16 199 4.8 19.3 0.00 1.27 1.24 81 1003.9
20260506071213 7 255 0.0 0.0 0.00 0.00 0.00 84 1024.7
20260506071205 15 172 6.4 16.1 0.00 1.27 1.24 82 1004.0
20260506070705 15 162 3.2 19.3 0.00 1.27 1.24 82 1004.2
20260506070213 7 255 0.0 0.0 0.00 0.00 0.00 84 1024.7
20260506070204 15 157 8.0 19.3 0.00 1.27 1.24 82 1004.3